When you browse on this site, cookies collect data to enhance your experience and personalize the content and advertising you see.
Visit our Privacy Policy to learn more. By continuing to use the site, you agree to this use of cookies and data.
  • In Lithuania
  • List of Countries
  • For 7 days
  • Water Temperature
  • Satellite Maps
  • Weather Map
  • Weather Widgets
  • user-avatar
    Login

    Hourly Weather Encamp

    Today, 23 May, Thursday

    Time Temperature Precipitation Wind Pressure Humidity
    00:00 +6°C° 0 mm 1 mps 623 mmHg 80%
    01:00 +6°C° 0 mm 1 mps 623 mmHg 78%
    02:00 +5°C° 0 mm 1 mps 622 mmHg 77%
    03:00 +5°C° 0 mm 1 mps 622 mmHg 75%
    04:00 +6°C° 0 mm 1 mps 623 mmHg 73%
    05:00 +8°C° 0 mm 1 mps 623 mmHg 71%
    06:00 +9°C° 0 mm 1 mps 624 mmHg 65%
    07:00 +12°C° 0 mm 1 mps 625 mmHg 57%
    08:00 +14°C° 0 mm 1 mps 626 mmHg 48%
    09:00 +18°C° 0 mm 1 mps 627 mmHg 40%
    10:00 +19°C° 0 mm 1 mps 627 mmHg 37%
    11:00 +20°C° 0 mm 1 mps 627 mmHg 34%
    12:00 +21°C° 0 mm 1 mps 628 mmHg 31%
    13:00 +20°C° 0 mm 1 mps 627 mmHg 37%
    14:00 +18°C° 0 mm 1 mps 626 mmHg 42%
    15:00 +16°C° 0 mm 1 mps 625 mmHg 47%
    16:00 +14°C° 0.4 mm 1 mps 625 mmHg 59%
    17:00 +13°C° 0.4 mm 1 mps 624 mmHg 70%
    18:00 +11°C° 0.4 mm 1 mps 623 mmHg 81%
    19:00 +11°C° 0.4 mm 1 mps 623 mmHg 84%
    20:00 +10°C° 0.4 mm 1 mps 623 mmHg 88%
    21:00 +9°C° 0.4 mm 1 mps 623 mmHg 91%
    22:00 +9°C° 1.6 mm 1 mps 623 mmHg 93%
    23:00 +9°C° 1.6 mm 1 mps 623 mmHg 95%

    Tomorrow, 24 May, Friday

    Time Temperature Precipitation Wind Pressure Humidity
    00:00 +9°C° 1.6 mm 1 mps 623 mmHg 97%
    01:00 +8°C° 4.2 mm 1 mps 622 mmHg 97%
    02:00 +8°C° 4.2 mm 1 mps 622 mmHg 97%
    03:00 +8°C° 4.2 mm 1 mps 622 mmHg 97%
    04:00 +8°C° 3 mm 1 mps 622 mmHg 96%
    05:00 +7°C° 3 mm 1 mps 622 mmHg 96%
    06:00 +7°C° 3 mm 1 mps 621 mmHg 96%
    07:00 +7°C° 1.5 mm 1 mps 622 mmHg 95%
    08:00 +7°C° 1.5 mm 1 mps 622 mmHg 94%
    09:00 +6°C° 1.5 mm 2 mps 622 mmHg 93%
    10:00 +6°C° 1.2 mm 2 mps 622 mmHg 93%
    11:00 +6°C° 1.2 mm 2 mps 622 mmHg 92%
    12:00 +6°C° 1.2 mm 2 mps 622 mmHg 91%
    13:00 +7°C° 0.4 mm 2 mps 622 mmHg 89%
    14:00 +7°C° 0.4 mm 2 mps 622 mmHg 87%
    15:00 +8°C° 0.4 mm 2 mps 622 mmHg 84%
    16:00 +8°C° 0.3 mm 2 mps 622 mmHg 86%
    17:00 +7°C° 0.3 mm 2 mps 622 mmHg 88%
    18:00 +7°C° 0.3 mm 2 mps 621 mmHg 90%
    19:00 +6°C° 1.1 mm 2 mps 621 mmHg 92%
    20:00 +6°C° 1.1 mm 2 mps 622 mmHg 94%
    21:00 +6°C° 1.1 mm 2 mps 622 mmHg 96%
    22:00 +6°C° 1.8 mm 2 mps 622 mmHg 96%
    23:00 +6°C° 1.8 mm 2 mps 622 mmHg 96%

    Day after tomorrow, 25 May, Saturday

    Time Temperature Precipitation Wind Pressure Humidity
    00:00 +6°C° 1.8 mm 2 mps 622 mmHg 97%
    01:00 +5°C° 1.8 mm 2 mps 621 mmHg 97%
    02:00 +5°C° 1.8 mm 2 mps 621 mmHg 96%
    03:00 +5°C° 1.8 mm 2 mps 621 mmHg 96%
    04:00 +5°C° 1.7 mm 2 mps 621 mmHg 96%
    05:00 +4°C° 1.7 mm 3 mps 621 mmHg 96%
    06:00 +4°C° 1.7 mm 3 mps 621 mmHg 96%
    07:00 +4°C° 1.4 mm 3 mps 621 mmHg 95%
    08:00 +5°C° 1.4 mm 3 mps 622 mmHg 94%
    09:00 +5°C° 1.4 mm 3 mps 622 mmHg 93%
    10:00 +5°C° 0.9 mm 3 mps 622 mmHg 91%
    11:00 +5°C° 0.9 mm 3 mps 622 mmHg 90%
    12:00 +7°C° 0.9 mm 3 mps 622 mmHg 88%
    13:00 +7°C° 0.6 mm 3 mps 622 mmHg 88%
    14:00 +7°C° 0.6 mm 3 mps 622 mmHg 87%
    15:00 +7°C° 0.6 mm 3 mps 622 mmHg 86%
    16:00 +7°C° 0.1 mm 3 mps 622 mmHg 86%
    17:00 +7°C° 0.1 mm 3 mps 622 mmHg 86%
    18:00 +7°C° 0.1 mm 3 mps 622 mmHg 86%
    19:00 +7°C° 0.1 mm 3 mps 623 mmHg 87%
    20:00 +5°C° 0.1 mm 3 mps 623 mmHg 89%
    21:00 +5°C° 0.1 mm 3 mps 623 mmHg 91%
    22:00 +5°C° 0.1 mm 3 mps 623 mmHg 91%
    23:00 +5°C° 0.1 mm 3 mps 623 mmHg 91%

    26 May, Sunday

    Time Temperature Precipitation Wind Pressure Humidity
    00:00 +4°C° 0.1 mm 3 mps 623 mmHg 92%
    01:00 +4°C° 0.2 mm 3 mps 622 mmHg 92%
    02:00 +4°C° 0.2 mm 3 mps 622 mmHg 91%
    03:00 +4°C° 0.2 mm 3 mps 622 mmHg 91%
    04:00 +4°C° 0.2 mm 3 mps 622 mmHg 90%
    05:00 +4°C° 0.2 mm 3 mps 622 mmHg 89%
    06:00 +5°C° 0.2 mm 3 mps 622 mmHg 88%
    07:00 +5°C° 0.2 mm 4 mps 623 mmHg 84%
    08:00 +6°C° 0.2 mm 4 mps 623 mmHg 81%
    09:00 +7°C° 0.2 mm 4 mps 624 mmHg 78%
    10:00 +7°C° 0 mm 4 mps 624 mmHg 73%
    11:00 +8°C° 0 mm 4 mps 624 mmHg 69%
    12:00 +8°C° 0 mm 4 mps 624 mmHg 65%
    13:00 +10°C° 0 mm 4 mps 624 mmHg 60%
    14:00 +11°C° 0 mm 4 mps 624 mmHg 56%
    15:00 +12°C° 0 mm 4 mps 624 mmHg 52%
    16:00 +11°C° 0 mm 3 mps 623 mmHg 56%
    17:00 +10°C° 0 mm 3 mps 623 mmHg 60%
    18:00 +9°C° 0 mm 3 mps 623 mmHg 64%
    19:00 +7°C° 0 mm 3 mps 622 mmHg 72%
    20:00 +6°C° 0 mm 2 mps 622 mmHg 80%
    21:00 +4°C° 0 mm 2 mps 621 mmHg 87%
    22:00 +4°C° 0 mm 2 mps 621 mmHg 89%
    23:00 +4°C° 0 mm 2 mps 621 mmHg 90%

    27 May, Monday

    Time Temperature Precipitation Wind Pressure Humidity
    00:00 +4°C° 0 mm 2 mps 621 mmHg 92%
    01:00 +5°C° 0 mm 2 mps 621 mmHg 92%
    02:00 +5°C° 0 mm 2 mps 621 mmHg 92%
    03:00 +5°C° 0 mm 2 mps 620 mmHg 92%
    04:00 +5°C° 0 mm 2 mps 621 mmHg 89%
    05:00 +6°C° 0 mm 2 mps 621 mmHg 87%
    06:00 +7°C° 0 mm 2 mps 621 mmHg 84%
    07:00 +9°C° 0 mm 2 mps 622 mmHg 75%
    08:00 +12°C° 0 mm 2 mps 623 mmHg 65%
    09:00 +14°C° 0 mm 2 mps 623 mmHg 56%
    10:00 +15°C° 0 mm 2 mps 623 mmHg 53%
    11:00 +16°C° 0 mm 2 mps 624 mmHg 50%
    12:00 +17°C° 0 mm 2 mps 624 mmHg 46%
    13:00 +16°C° 0.1 mm 2 mps 623 mmHg 52%
    14:00 +15°C° 0.1 mm 1 mps 622 mmHg 58%
    15:00 +14°C° 0.1 mm 1 mps 621 mmHg 64%
    16:00 +13°C° 0.5 mm 1 mps 621 mmHg 74%
    17:00 +11°C° 0.5 mm 1 mps 620 mmHg 83%
    18:00 +9°C° 0.5 mm 2 mps 619 mmHg 93%
    19:00 +9°C° 1.2 mm 1 mps 619 mmHg 94%
    20:00 +9°C° 1.2 mm 1 mps 620 mmHg 95%
    21:00 +9°C° 1.2 mm 1 mps 620 mmHg 97%
    22:00 +8°C° 0.6 mm 1 mps 619 mmHg 97%
    23:00 +8°C° 0.6 mm 1 mps 619 mmHg 97%

    28 May, Tuesday

    Time Temperature Precipitation Wind Pressure Humidity
    00:00 +7°C° 0.6 mm 1 mps 619 mmHg 97%
    01:00 +7°C° 0.4 mm 1 mps 618 mmHg 97%
    02:00 +7°C° 0.4 mm 1 mps 618 mmHg 98%
    03:00 +6°C° 0.4 mm 1 mps 618 mmHg 98%
    04:00 +6°C° 1.1 mm 1 mps 618 mmHg 98%
    05:00 +6°C° 1.1 mm 1 mps 617 mmHg 98%
    06:00 +6°C° 1.1 mm 1 mps 617 mmHg 98%
    07:00 +5°C° 3 mm 1 mps 617 mmHg 97%
    08:00 +5°C° 3 mm 1 mps 617 mmHg 96%
    09:00 +5°C° 3 mm 1 mps 617 mmHg 96%
    10:00 +5°C° 0.9 mm 1 mps 617 mmHg 95%
    11:00 +5°C° 0.9 mm 1 mps 617 mmHg 95%
    12:00 +5°C° 0.9 mm 1 mps 617 mmHg 95%
    13:00 +6°C° 0.8 mm 1 mps 617 mmHg 94%
    14:00 +6°C° 0.8 mm 1 mps 617 mmHg 93%
    15:00 +5°C° 0.8 mm 2 mps 617 mmHg 93%
    16:00 +4°C° 1.1 mm 2 mps 617 mmHg 94%
    17:00 +4°C° 1.1 mm 2 mps 617 mmHg 95%
    18:00 +3°C° 1.1 mm 2 mps 617 mmHg 96%
    19:00 +3°C° 1.4 mm 2 mps 617 mmHg 96%
    20:00 +2°C° 1.4 mm 2 mps 617 mmHg 96%
    21:00 +2°C° 1.4 mm 2 mps 618 mmHg 96%
    22:00 +1°C° 1.3 mm 2 mps 618 mmHg 96%
    23:00 +1°C° 1.3 mm 2 mps 618 mmHg 95%
    Show more